CHINASAT 10

导读

中星十号(CHINASAT 10)是中国于2011年6月20日成功发射的通信广播卫星,由中国空间技术研究院研制,属于中国卫通商用通信卫星体系。该卫星定位于地球同步轨道,搭载多频段转发器,主要为中国及周边区域提供广播电视传输、通信宽带、多媒体业务等服务,进一步增强了中国自主卫星通信的覆盖能力与可靠性,满足不同领域的长距离通信传输需求。

基本信息
目录编号:
37677
目录名称:
CHINASAT 10
国际标识:
2011-026A
轨道中心:
EARTH
卫星名称:
CHINASAT 10
卫星全名:
--
卫星状态:
在轨 (已飞行5562 天)
发射日期:
2011-06-20 UTC
国别 :
中国 (CN)
星等 :
--
该卫星已列入 空间交会检测服务 Space Conjunction Data Service (SCDS) ,当前飞行风险评估等级: 无高风险
轨道信息
数据来源 国际轨道数据
星历时间: 2026-09-11T08:40:30+0800
14小时前
查看轨道信息
半长轴: 42165.794km
偏心率: 0.0002817
轨道倾角: 1.263°
近地点辐角 70.673°
升交点赤经 83.051°
平近点角 291.875°
近地点: 35775.778km
远地点: 35799.536km
周期: 1436.151分钟
每日圈数: 1.00268
详细信息
使用方式:
暂无
2D轨道图
3D轨道图
轨道高度分析图
轨道倾角分析图
轨道综合分析图
查看轨道综合分析图
与全量物体交会距离演化趋势
与全量物体交会风险概率演化趋势